Details for Ryanair at EGAA




Go Back


Latest METAR
Local Time

EGAA 181420Z 22011KT 9999 FEW020 SCT026 BKN032 16/12 Q0998
18/09/2018, 15:32:01

Description
Results
Ryanair Logo
Number of Pilots based at EGAA
1 Pilots Based here
Number of Ryanair Flights Departed from EGAA
6 Flights Departed
Number of Ryanair Flights Arrived at EGAA
5 Flights Arrived
Number of Ryanair Schedules Departing from EGAA
30 Schedules
Number of Ryanair Schedules Arriving at EGAA
30 Schedules
Number of Ryanair Schedules Departing from EGAA availible today
9 Schedules Today
Number of Ryanair Schedules Arriving at EGAA availible today
9 Schedules Today
Average Landing Rate at EGAA
-227 fpm
Ryanair Average Landing Rate at EGAA
-139 fpm
Total Fuel Purchased at EGAA by Ryanair
33,228.81 kgs / 73,256.23 lbs

Pilots Based at EGAA


Pilot ID
Pilot Name
Pilot Rank
No. of Flights
No. of Flying Hours
Dean Cullen
162
197.13
Content